Powrót do katalogu

SL-8 R/B

AktywnyPO
NORAD 14974·ROCKET BODY·🇷🇺 Russia

Wystrzelony May 17, 1984 z Plesetsk Cosmodrome

Loading…

Następne Przeloty (najbliższe 24 godziny)

TLE

ŚwieżeSource: Space-Track

Epoka: Sep 14, 2026, 03:45 UTC

1 14974U 84046B   26257.15641041  .00000050  00000-0  35006-4 0  9994
2 14974  82.9388 150.4926 0043530 272.9995 250.5848 13.77179387126509

Śledź SL-8 R/B w czasie rzeczywistym z AllMySat

Download on the App Store